Time,TemperatureF,DewpointF,PressureIn,WindDirection,WindDirectionDegrees,WindSpeedMPH,WindSpeedGustMPH,Humidity,HourlyPrecipIn,Conditions,Clouds,dailyrainin,SoftwareType,DateUTC
2013-03-31 00:10:00,46.3,37.0,30.10,South,169,1.0,5.0,71,0.00,,,0.00,weatherlink.com 1.10,2013-03-31 04:10:00,
2013-03-31 00:25:00,46.7,38.0,30.10,South,169,3.0,8.0,73,0.00,,,0.00,weatherlink.com 1.10,2013-03-31 04:25:00,
2013-03-31 00:40:00,47.0,38.0,30.10,SSE,162,2.0,9.0,72,0.00,,,0.00,weatherlink.com 1.10,2013-03-31 04:40:00,
2013-03-31 00:55:00,46.9,39.0,30.09,SSE,148,3.0,7.0,73,0.00,,,0.00,weatherlink.com 1.10,2013-03-31 04:55:00,
2013-03-31 01:10:00,46.8,39.0,30.09,SE,128,1.0,6.0,75,0.00,,,0.00,weatherlink.com 1.10,2013-03-31 05:10:00,
2013-03-31 01:25:00,46.5,39.0,30.09,SSE,149,2.0,5.0,76,0.00,,,0.00,weatherlink.com 1.10,2013-03-31 05:25:00,
2013-03-31 01:40:00,46.0,39.0,30.09,SE,132,4.0,4.0,77,0.00,,,0.00,weatherlink.com 1.10,2013-03-31 05:40:00,
2013-03-31 01:55:00,45.8,39.0,30.09,SSE,155,1.0,3.0,77,0.00,,,0.00,weatherlink.com 1.10,2013-03-31 05:55:00,
2013-03-31 02:10:00,45.7,39.0,30.08,South,184,1.0,4.0,76,0.00,,,0.00,weatherlink.com 1.10,2013-03-31 06:10:00,
2013-03-31 02:25:00,45.9,38.0,30.08,SSE,155,2.0,4.0,75,0.00,,,0.00,weatherlink.com 1.10,2013-03-31 06:25:00,
2013-03-31 02:40:00,46.0,39.0,30.07,SSE,155,2.0,7.0,75,0.00,,,0.00,weatherlink.com 1.10,2013-03-31 06:40:00,
2013-03-31 02:55:00,45.9,40.0,30.07,SSW,197,2.0,7.0,79,0.00,,,0.00,weatherlink.com 1.10,2013-03-31 06:55:00,
2013-03-31 03:10:00,46.0,40.0,30.06,SE,128,2.0,7.0,79,0.00,,,0.00,weatherlink.com 1.10,2013-03-31 07:10:00,
2013-03-31 03:25:00,45.8,40.0,30.06,South,190,3.0,6.0,80,0.00,,,0.00,weatherlink.com 1.10,2013-03-31 07:25:00,
2013-03-31 03:40:00,45.8,40.0,30.06,South,191,4.0,7.0,81,0.00,,,0.00,weatherlink.com 1.10,2013-03-31 07:40:00,
2013-03-31 03:55:00,45.7,40.0,30.05,SSW,197,2.0,4.0,80,0.00,,,0.00,weatherlink.com 1.10,2013-03-31 07:55:00,
2013-03-31 04:10:00,46.0,39.0,30.05,SE,142,3.0,7.0,77,0.00,,,0.00,weatherlink.com 1.10,2013-03-31 08:10:00,
2013-03-31 04:25:00,46.7,39.0,30.04,SSE,162,7.0,10.0,75,0.00,,,0.00,weatherlink.com 1.10,2013-03-31 08:25:00,
2013-03-31 04:40:00,46.4,40.0,30.04,SE,124,4.0,7.0,79,0.00,,,0.00,weatherlink.com 1.10,2013-03-31 08:40:00,
2013-03-31 04:55:00,46.2,40.0,30.03,ESE,110,4.0,6.0,80,0.00,,,0.00,weatherlink.com 1.10,2013-03-31 08:55:00,
2013-03-31 05:10:00,46.1,41.0,30.03,ESE,113,2.0,4.0,83,0.00,,,0.00,weatherlink.com 1.10,2013-03-31 09:10:00,
2013-03-31 05:25:00,45.9,40.0,30.02,ESE,102,4.0,4.0,80,0.00,,,0.00,weatherlink.com 1.10,2013-03-31 09:25:00,
2013-03-31 05:40:00,46.1,40.0,30.02,SE,125,3.0,6.0,80,0.00,,,0.00,weatherlink.com 1.10,2013-03-31 09:40:00,
2013-03-31 05:55:00,46.3,40.0,30.01,SE,127,3.0,5.0,78,0.00,,,0.00,weatherlink.com 1.10,2013-03-31 09:55:00,
2013-03-31 06:10:00,46.5,40.0,30.01,ESE,107,5.0,7.0,78,0.00,,,0.00,weatherlink.com 1.10,2013-03-31 10:10:00,
2013-03-31 06:25:00,46.7,40.0,30.00,SE,126,6.0,9.0,78,0.00,,,0.00,weatherlink.com 1.10,2013-03-31 10:25:00,
2013-03-31 06:40:00,46.4,41.0,30.00,ESE,120,5.0,8.0,81,0.00,,,0.00,weatherlink.com 1.10,2013-03-31 10:40:00,
2013-03-31 06:55:00,46.6,40.0,30.00,SE,124,8.0,9.0,79,0.00,,,0.00,weatherlink.com 1.10,2013-03-31 10:55:00,
2013-03-31 07:10:00,46.8,40.0,30.00,SE,134,5.0,9.0,78,0.00,,,0.00,weatherlink.com 1.10,2013-03-31 11:10:00,
2013-03-31 07:25:00,47.0,40.0,30.00,SE,127,9.0,11.0,77,0.00,,,0.00,weatherlink.com 1.10,2013-03-31 11:25:00,
2013-03-31 07:40:00,47.2,40.0,30.00,South,173,6.0,9.0,77,0.00,,,0.00,weatherlink.com 1.10,2013-03-31 11:40:00,
2013-03-31 07:55:00,47.1,41.0,30.00,SE,132,4.0,11.0,78,0.00,,,0.00,weatherlink.com 1.10,2013-03-31 11:55:00,
2013-03-31 08:10:00,47.7,40.0,30.00,SE,130,5.0,11.0,76,0.00,,,0.00,weatherlink.com 1.10,2013-03-31 12:10:00,
2013-03-31 08:25:00,48.1,41.0,29.99,SSE,147,5.0,12.0,75,0.00,,,0.00,weatherlink.com 1.10,2013-03-31 12:25:00,
2013-03-31 08:40:00,48.4,41.0,29.99,SSW,194,9.0,13.0,75,0.00,,,0.00,weatherlink.com 1.10,2013-03-31 12:40:00,
2013-03-31 08:55:00,48.5,41.0,29.98,SSE,153,4.0,10.0,76,0.00,,,0.00,weatherlink.com 1.10,2013-03-31 12:55:00,
2013-03-31 09:10:00,48.8,42.0,29.98,SSE,160,9.0,11.0,76,0.00,,,0.00,weatherlink.com 1.10,2013-03-31 13:10:00,
2013-03-31 09:41:00,48.7,42.0,29.96,SSE,149,4.0,9.0,79,0.00,,,0.00,weatherlink.com 1.10,2013-03-31 13:41:00,
2013-03-31 09:56:00,48.8,43.0,29.96,South,180,3.0,10.0,79,0.00,,,0.00,weatherlink.com 1.10,2013-03-31 13:56:00,
2013-03-31 10:26:00,49.2,43.0,29.95,SSE,160,7.0,14.0,80,0.00,,,0.00,weatherlink.com 1.10,2013-03-31 14:26:00,
2013-03-31 10:41:00,49.5,43.0,29.95,SE,134,4.0,11.0,79,0.00,,,0.00,weatherlink.com 1.10,2013-03-31 14:41:00,
2013-03-31 10:56:00,50.4,43.0,29.94,ESE,122,3.0,12.0,77,0.00,,,0.00,weatherlink.com 1.10,2013-03-31 14:56:00,
2013-03-31 11:26:00,51.1,43.0,29.92,SSE,163,7.0,15.0,75,0.00,,,0.00,weatherlink.com 1.10,2013-03-31 15:26:00,
2013-03-31 11:41:00,51.5,43.0,29.92,SSE,167,8.0,17.0,74,0.00,,,0.00,weatherlink.com 1.10,2013-03-31 15:41:00,
2013-03-31 11:56:00,52.2,44.0,29.90,SSE,162,8.0,18.0,73,0.00,,,0.00,weatherlink.com 1.10,2013-03-31 15:56:00,
2013-03-31 12:11:00,53.2,43.0,29.89,SE,145,13.0,23.0,69,0.00,,,0.00,weatherlink.com 1.10,2013-03-31 16:11:00,
2013-03-31 12:26:00,53.4,43.0,29.88,SE,145,11.0,28.0,69,0.00,,,0.00,weatherlink.com 1.10,2013-03-31 16:26:00,
2013-03-31 12:41:00,53.1,44.0,29.87,SSE,167,7.0,21.0,71,0.00,,,0.00,weatherlink.com 1.10,2013-03-31 16:41:00,
2013-03-31 12:56:00,52.4,44.0,29.86,SE,128,10.0,21.0,73,0.00,,,0.00,weatherlink.com 1.10,2013-03-31 16:56:00,
2013-03-31 13:11:00,51.9,45.0,29.85,SE,134,12.0,27.0,77,0.00,,,0.00,weatherlink.com 1.10,2013-03-31 17:11:00,
2013-03-31 13:26:00,51.6,45.0,29.84,SSE,149,7.0,23.0,79,0.00,,,0.00,weatherlink.com 1.10,2013-03-31 17:26:00,
2013-03-31 13:42:00,50.6,45.0,29.82,SSW,193,4.0,13.0,82,0.00,,,0.00,weatherlink.com 1.10,2013-03-31 17:42:00,
2013-03-31 13:56:00,50.0,46.0,29.81,SSE,155,9.0,13.0,85,0.00,,,0.00,weatherlink.com 1.10,2013-03-31 17:56:00,
2013-03-31 14:11:00,50.4,46.0,29.80,SSE,156,4.0,10.0,85,0.00,,,0.00,weatherlink.com 1.10,2013-03-31 18:11:00,
2013-03-31 14:26:00,50.1,46.0,29.79,SE,135,6.0,8.0,86,0.00,,,0.00,weatherlink.com 1.10,2013-03-31 18:26:00,
2013-03-31 14:42:00,49.8,47.0,29.79,SSW,206,2.0,7.0,89,0.00,,,0.00,weatherlink.com 1.10,2013-03-31 18:42:00,
2013-03-31 14:57:00,49.3,47.0,29.78,SW,225,1.0,2.0,91,0.01,,,0.01,weatherlink.com 1.10,2013-03-31 18:57:00,
2013-03-31 15:12:00,49.0,47.0,29.77,SSW,197,0.0,2.0,92,0.02,,,0.02,weatherlink.com 1.10,2013-03-31 19:12:00,
2013-03-31 15:42:00,48.6,47.0,29.74,SSE,152,1.0,3.0,94,0.05,,,0.05,weatherlink.com 1.10,2013-03-31 19:42:00,
2013-03-31 15:57:00,48.9,48.0,29.74,WSW,245,3.0,3.0,95,0.04,,,0.05,weatherlink.com 1.10,2013-03-31 19:57:00,
2013-03-31 16:12:00,49.3,48.0,29.75,South,184,0.0,5.0,95,0.03,,,0.05,weatherlink.com 1.10,2013-03-31 20:12:00,
2013-03-31 16:27:00,49.5,48.0,29.74,South,169,7.0,8.0,96,0.01,,,0.05,weatherlink.com 1.10,2013-03-31 20:27:00,
2013-03-31 16:42:00,49.4,48.0,29.73,SW,221,7.0,9.0,96,0.00,,,0.05,weatherlink.com 1.10,2013-03-31 20:42:00,
2013-03-31 16:57:00,49.2,48.0,29.73,SSE,160,4.0,9.0,96,0.00,,,0.05,weatherlink.com 1.10,2013-03-31 20:57:00,
2013-03-31 17:12:00,48.9,48.0,29.72,SSE,158,4.0,9.0,96,0.00,,,0.05,weatherlink.com 1.10,2013-03-31 21:12:00,
2013-03-31 17:27:00,48.9,48.0,29.72,SSW,194,5.0,8.0,96,0.00,,,0.05,weatherlink.com 1.10,2013-03-31 21:27:00,
2013-03-31 17:42:00,48.7,48.0,29.72,SSW,207,3.0,9.0,96,0.00,,,0.05,weatherlink.com 1.10,2013-03-31 21:42:00,
2013-03-31 17:57:00,48.7,48.0,29.72,WSW,242,2.0,5.0,96,0.00,,,0.05,weatherlink.com 1.10,2013-03-31 21:57:00,
2013-03-31 18:12:00,48.9,48.0,29.72,SW,219,1.0,2.0,97,0.00,,,0.05,weatherlink.com 1.10,2013-03-31 22:12:00,
2013-03-31 18:27:00,49.2,48.0,29.71,SSE,153,3.0,3.0,97,0.00,,,0.05,weatherlink.com 1.10,2013-03-31 22:27:00,
2013-03-31 18:42:00,49.4,49.0,29.71,SSE,156,2.0,3.0,97,0.00,,,0.05,weatherlink.com 1.10,2013-03-31 22:42:00,
2013-03-31 18:57:00,50.0,49.0,29.71,SW,219,1.0,3.0,97,0.00,,,0.05,weatherlink.com 1.10,2013-03-31 22:57:00,
2013-03-31 19:12:00,50.6,50.0,29.71,SW,236,2.0,4.0,97,0.00,,,0.05,weatherlink.com 1.10,2013-03-31 23:12:00,
2013-03-31 19:27:00,51.4,50.0,29.72,WSW,246,2.0,6.0,96,0.00,,,0.05,weatherlink.com 1.10,2013-03-31 23:27:00,
2013-03-31 19:42:00,51.6,50.0,29.72,WSW,240,2.0,4.0,95,0.00,,,0.05,weatherlink.com 1.10,2013-03-31 23:42:00,
2013-03-31 19:57:00,51.9,50.0,29.72,SW,221,4.0,6.0,94,0.00,,,0.05,weatherlink.com 1.10,2013-03-31 23:57:00,
2013-03-31 20:13:00,52.1,50.0,29.71,WSW,243,4.0,5.0,93,0.00,,,0.05,weatherlink.com 1.10,2013-04-01 00:13:00,
2013-03-31 20:28:00,52.0,50.0,29.71,West,267,1.0,5.0,92,0.00,,,0.05,weatherlink.com 1.10,2013-04-01 00:28:00,
2013-03-31 20:43:00,52.0,50.0,29.72,West,280,2.0,6.0,92,0.00,,,0.05,weatherlink.com 1.10,2013-04-01 00:43:00,
2013-03-31 20:58:00,51.8,50.0,29.71,WSW,248,4.0,5.0,92,0.00,,,0.05,weatherlink.com 1.10,2013-04-01 00:58:00,
2013-03-31 21:13:00,51.8,50.0,29.73,WSW,256,4.0,5.0,92,0.00,,,0.05,weatherlink.com 1.10,2013-04-01 01:13:00,
2013-03-31 21:28:00,51.6,49.0,29.74,WSW,253,3.0,7.0,92,0.00,,,0.05,weatherlink.com 1.10,2013-04-01 01:28:00,
2013-03-31 21:43:00,51.6,49.0,29.74,WSW,254,5.0,7.0,92,0.00,,,0.05,weatherlink.com 1.10,2013-04-01 01:43:00,
2013-03-31 21:58:00,51.6,49.0,29.75,WSW,241,5.0,7.0,91,0.00,,,0.05,weatherlink.com 1.10,2013-04-01 01:58:00,
2013-03-31 22:13:00,51.4,49.0,29.75,SW,225,3.0,6.0,91,0.00,,,0.05,weatherlink.com 1.10,2013-04-01 02:13:00,
2013-03-31 22:28:00,51.1,49.0,29.75,WSW,240,4.0,5.0,91,0.00,,,0.05,weatherlink.com 1.10,2013-04-01 02:28:00,
2013-03-31 22:43:00,51.0,49.0,29.75,SW,228,6.0,7.0,91,0.00,,,0.05,weatherlink.com 1.10,2013-04-01 02:43:00,
2013-03-31 22:58:00,50.8,48.0,29.75,WSW,249,4.0,4.0,91,0.00,,,0.05,weatherlink.com 1.10,2013-04-01 02:58:00,
2013-03-31 23:13:00,50.5,48.0,29.74,West,280,3.0,4.0,92,0.00,,,0.05,weatherlink.com 1.10,2013-04-01 03:13:00,
2013-03-31 23:28:00,50.4,48.0,29.73,WSW,238,1.0,4.0,92,0.00,,,0.05,weatherlink.com 1.10,2013-04-01 03:28:00,
2013-03-31 23:43:00,50.1,48.0,29.74,WNW,287,3.0,4.0,92,0.00,,,0.05,weatherlink.com 1.10,2013-04-01 03:43:00,
2013-03-31 23:58:00,49.8,48.0,29.74,WSW,252,3.0,3.0,93,0.00,,,0.05,weatherlink.com 1.10,2013-04-01 03:58:00,